TimeCST,TemperatureF,Dew PointF,Humidity,Sea Level PressureIn,VisibilityMPH,Wind Direction,Wind SpeedMPH,Gust SpeedMPH,PrecipitationIn,Events,Conditions,WindDirDegrees,DateUTC
12:15 AM,44.6,41.0,87,29.98,4.0,SSE,11.5,17.3,N/A,,Overcast,160,2013-01-27 06:15:00
12:35 AM,44.6,41.0,87,29.99,4.0,South,10.4,-,N/A,,Overcast,170,2013-01-27 06:35:00
12:55 AM,44.6,41.0,87,30.00,4.0,South,6.9,-,N/A,,Overcast,190,2013-01-27 06:55:00
1:15 AM,44.6,41.0,87,30.00,4.0,South,3.5,-,N/A,,Overcast,190,2013-01-27 07:15:00
1:35 AM,44.6,41.0,87,29.99,4.0,South,5.8,-,N/A,,Overcast,170,2013-01-27 07:35:00
2:15 AM,44.6,42.8,93,29.97,3.0,SSE,12.7,-,N/A,,Overcast,150,2013-01-27 08:15:00
2:35 AM,44.6,42.8,93,29.96,3.0,SSE,13.8,-,N/A,,Overcast,160,2013-01-27 08:35:00
2:55 AM,46.4,44.6,93,29.94,2.5,SSE,18.4,-,N/A,,Overcast,160,2013-01-27 08:55:00
3:15 AM,46.4,44.6,93,29.94,1.8,South,18.4,-,N/A,,Overcast,170,2013-01-27 09:15:00
3:35 AM,46.4,44.6,93,29.94,1.2,South,23.0,26.5,N/A,,Overcast,180,2013-01-27 09:35:00
3:55 AM,46.4,44.6,93,29.94,1.2,SSE,16.1,-,N/A,,Overcast,160,2013-01-27 09:55:00
4:15 AM,46.4,44.6,93,29.93,1.0,South,16.1,-,N/A,,Overcast,170,2013-01-27 10:15:00
4:35 AM,46.4,44.6,93,29.92,1.5,SSE,17.3,-,N/A,,Overcast,150,2013-01-27 10:35:00
4:55 AM,46.4,44.6,93,29.90,0.8,SSE,18.4,-,N/A,,Overcast,160,2013-01-27 10:55:00
5:15 AM,46.4,44.6,93,29.91,0.5,SSE,17.3,-,N/A,Rain,Light Rain,160,2013-01-27 11:15:00
5:35 AM,48.2,46.4,93,29.90,0.5,SSE,15.0,-,N/A,Rain,Light Rain,160,2013-01-27 11:35:00
5:55 AM,50.0,46.4,87,29.90,0.5,SSE,18.4,21.9,N/A,Fog,Fog,160,2013-01-27 11:55:00
6:15 AM,48.2,46.4,93,29.90,0.5,SSE,19.6,-,N/A,Fog,Fog,160,2013-01-27 12:15:00
6:35 AM,48.2,46.4,93,29.90,0.5,SSE,18.4,-,N/A,Fog,Fog,160,2013-01-27 12:35:00
7:15 AM,50.0,46.4,87,29.90,1.0,SSE,15.0,23.0,N/A,,Overcast,160,2013-01-27 13:15:00
7:35 AM,50.0,46.4,87,29.90,1.8,SSE,12.7,20.7,N/A,,Overcast,160,2013-01-27 13:35:00
7:55 AM,51.8,50.0,94,29.90,3.0,South,17.3,25.3,N/A,,Overcast,170,2013-01-27 13:55:00
8:15 AM,51.8,50.0,94,29.90,3.0,South,19.6,24.2,N/A,,Overcast,180,2013-01-27 14:15:00
8:35 AM,51.8,50.0,94,29.91,1.8,South,18.4,-,N/A,,Overcast,180,2013-01-27 14:35:00
8:55 AM,51.8,50.0,94,29.91,1.5,South,18.4,23.0,N/A,,Overcast,170,2013-01-27 14:55:00
9:15 AM,51.8,50.0,94,29.91,1.8,South,13.8,-,N/A,,Overcast,170,2013-01-27 15:15:00
9:35 AM,51.8,50.0,94,29.91,2.0,South,16.1,-,N/A,,Overcast,180,2013-01-27 15:35:00
9:55 AM,51.8,50.0,94,29.90,2.5,South,18.4,26.5,N/A,,Overcast,180,2013-01-27 15:55:00
10:15 AM,53.6,51.8,94,29.91,4.0,South,18.4,25.3,N/A,,Overcast,190,2013-01-27 16:15:00
10:35 AM,53.6,51.8,94,29.91,4.0,South,25.3,-,N/A,,Overcast,190,2013-01-27 16:35:00
10:55 AM,55.4,51.8,88,29.91,4.0,South,21.9,26.5,N/A,,Overcast,190,2013-01-27 16:55:00
11:15 AM,57.2,51.8,82,29.90,5.0,South,19.6,29.9,N/A,,Haze,190,2013-01-27 17:15:00
11:35 AM,60.8,51.8,72,29.90,7.0,South,23.0,27.6,N/A,,Mostly Cloudy,190,2013-01-27 17:35:00
11:55 AM,62.6,51.8,68,29.88,10.0,SSW,23.0,-,N/A,,Scattered Clouds,200,2013-01-27 17:55:00
12:15 PM,62.6,51.8,68,29.87,10.0,South,23.0,27.6,N/A,,Clear,190,2013-01-27 18:15:00
12:35 PM,64.4,51.8,64,29.85,10.0,South,24.2,29.9,N/A,,Clear,180,2013-01-27 18:35:00
12:55 PM,64.4,50.0,59,29.84,10.0,South,21.9,27.6,N/A,,Clear,190,2013-01-27 18:55:00
1:15 PM,64.4,51.8,64,29.83,10.0,South,21.9,-,N/A,,Clear,190,2013-01-27 19:15:00
1:35 PM,68.0,50.0,52,29.82,10.0,SSW,20.7,25.3,N/A,,Clear,200,2013-01-27 19:35:00
2:15 PM,68.0,50.0,52,29.80,10.0,South,19.6,23.0,N/A,,Clear,180,2013-01-27 20:15:00
2:35 PM,68.0,50.0,52,29.79,10.0,South,24.2,-,N/A,,Clear,190,2013-01-27 20:35:00
2:55 PM,69.8,50.0,49,29.79,10.0,South,20.7,25.3,N/A,,Clear,180,2013-01-27 20:55:00
3:15 PM,71.6,50.0,46,29.79,10.0,South,19.6,-,N/A,,Clear,190,2013-01-27 21:15:00
3:35 PM,71.6,50.0,46,29.78,10.0,South,21.9,26.5,N/A,,Clear,190,2013-01-27 21:35:00
3:55 PM,71.6,48.2,43,29.77,10.0,South,24.2,28.8,N/A,,Clear,190,2013-01-27 21:55:00
4:15 PM,71.6,48.2,43,29.77,10.0,South,23.0,29.9,N/A,,Clear,180,2013-01-27 22:15:00
4:35 PM,71.6,48.2,43,29.77,10.0,South,17.3,-,N/A,,Clear,180,2013-01-27 22:35:00
4:55 PM,71.6,46.4,41,29.76,10.0,South,19.6,24.2,N/A,,Clear,180,2013-01-27 22:55:00
5:15 PM,69.8,46.4,43,29.76,10.0,South,16.1,19.6,N/A,,Clear,180,2013-01-27 23:15:00
5:35 PM,69.8,48.2,46,29.77,10.0,South,15.0,-,N/A,,Clear,170,2013-01-27 23:35:00
5:55 PM,68.0,48.2,49,29.77,10.0,South,15.0,-,N/A,,Clear,170,2013-01-27 23:55:00
6:15 PM,66.2,48.2,52,29.78,10.0,South,13.8,-,N/A,,Clear,170,2013-01-28 00:15:00
6:35 PM,64.4,48.2,56,29.78,10.0,South,12.7,-,N/A,,Clear,170,2013-01-28 00:35:00
6:55 PM,64.4,50.0,59,29.79,10.0,South,17.3,-,N/A,,Clear,170,2013-01-28 00:55:00
7:15 PM,64.4,50.0,59,29.79,10.0,South,15.0,-,N/A,,Clear,170,2013-01-28 01:15:00
7:35 PM,64.4,50.0,59,29.80,10.0,South,12.7,-,N/A,,Clear,170,2013-01-28 01:35:00
7:55 PM,62.6,50.0,63,29.80,10.0,SSE,13.8,-,N/A,,Clear,150,2013-01-28 01:55:00
8:15 PM,60.8,50.0,68,29.80,10.0,SSE,13.8,-,N/A,,Clear,150,2013-01-28 02:15:00
8:35 PM,60.8,50.0,68,29.81,10.0,South,11.5,-,N/A,,Clear,170,2013-01-28 02:35:00
8:55 PM,60.8,50.0,68,29.81,10.0,South,12.7,-,N/A,,Clear,170,2013-01-28 02:55:00
9:15 PM,60.8,50.0,68,29.81,10.0,South,13.8,-,N/A,,Clear,170,2013-01-28 03:15:00
9:35 PM,60.8,50.0,68,29.81,10.0,South,13.8,-,N/A,,Clear,170,2013-01-28 03:35:00
10:15 PM,60.8,50.0,68,29.82,10.0,South,15.0,-,N/A,,Clear,180,2013-01-28 04:15:00
10:35 PM,59.0,50.0,72,29.82,10.0,South,12.7,-,N/A,,Clear,180,2013-01-28 04:35:00
10:55 PM,59.0,48.2,67,29.83,10.0,South,13.8,-,N/A,,Clear,180,2013-01-28 04:55:00
11:15 PM,57.2,48.2,72,29.83,10.0,South,11.5,-,N/A,,Clear,170,2013-01-28 05:15:00
11:35 PM,55.4,48.2,77,29.83,10.0,SSE,10.4,-,N/A,,Clear,160,2013-01-28 05:35:00
11:55 PM,55.4,46.4,72,29.83,10.0,SSE,11.5,-,N/A,,Clear,160,2013-01-28 05:55:00